TimeEST,TemperatureF,Dew PointF,Humidity,Sea Level PressureIn,VisibilityMPH,Wind Direction,Wind SpeedMPH,Gust SpeedMPH,PrecipitationIn,Events,Conditions,WindDirDegrees,DateUTC
12:52 AM,37.0,25.0,62,30.36,10.0,Calm,Calm,-,N/A,,Clear,0,2012-11-19 05:52:00
1:52 AM,37.9,25.0,60,30.35,10.0,Calm,Calm,-,N/A,,Clear,0,2012-11-19 06:52:00
2:52 AM,39.0,25.0,57,30.35,10.0,Calm,Calm,-,N/A,,Scattered Clouds,0,2012-11-19 07:52:00
3:52 AM,35.1,28.9,78,30.35,10.0,North,3.5,-,N/A,,Overcast,350,2012-11-19 08:52:00
4:52 AM,35.1,28.0,76,30.35,10.0,Calm,Calm,-,N/A,,Overcast,0,2012-11-19 09:52:00
5:52 AM,36.0,27.0,70,30.34,10.0,East,3.5,-,N/A,,Mostly Cloudy,90,2012-11-19 10:52:00
6:52 AM,34.0,27.0,75,30.36,10.0,North,3.5,-,N/A,,Mostly Cloudy,10,2012-11-19 11:52:00
7:52 AM,35.1,28.0,76,30.35,9.0,Calm,Calm,-,N/A,,Mostly Cloudy,0,2012-11-19 12:52:00
8:52 AM,39.9,30.0,68,30.35,8.0,Calm,Calm,-,N/A,,Mostly Cloudy,0,2012-11-19 13:52:00
9:52 AM,46.0,32.0,58,30.34,10.0,ESE,4.6,-,N/A,,Mostly Cloudy,120,2012-11-19 14:52:00
10:52 AM,51.1,34.0,52,30.33,10.0,ESE,5.8,-,N/A,,Mostly Cloudy,120,2012-11-19 15:52:00
11:52 AM,52.0,35.1,53,30.33,10.0,Calm,Calm,-,N/A,,Mostly Cloudy,0,2012-11-19 16:52:00
12:52 PM,55.0,36.0,49,30.31,10.0,ENE,3.5,-,N/A,,Mostly Cloudy,70,2012-11-19 17:52:00
1:52 PM,57.0,37.0,47,30.28,10.0,SE,3.5,-,N/A,,Mostly Cloudy,140,2012-11-19 18:52:00
2:52 PM,59.0,36.0,42,30.26,10.0,Calm,Calm,-,N/A,,Mostly Cloudy,0,2012-11-19 19:52:00
3:52 PM,57.9,35.1,42,30.24,10.0,Calm,Calm,-,N/A,,Scattered Clouds,0,2012-11-19 20:52:00
4:52 PM,55.9,36.0,47,30.23,10.0,Calm,Calm,-,N/A,,Mostly Cloudy,0,2012-11-19 21:52:00
5:52 PM,52.0,37.0,57,30.23,10.0,Calm,Calm,-,N/A,,Mostly Cloudy,0,2012-11-19 22:52:00
6:52 PM,50.0,37.0,61,30.23,10.0,Calm,Calm,-,N/A,,Overcast,0,2012-11-19 23:52:00
7:52 PM,48.9,36.0,61,30.22,10.0,Calm,Calm,-,N/A,,Overcast,0,2012-11-20 00:52:00
8:52 PM,46.9,37.0,68,30.22,10.0,Calm,Calm,-,N/A,,Overcast,0,2012-11-20 01:52:00
9:52 PM,46.9,37.0,68,30.20,10.0,Calm,Calm,-,N/A,,Overcast,0,2012-11-20 02:52:00
10:52 PM,46.9,37.0,68,30.20,10.0,Calm,Calm,-,N/A,,Overcast,0,2012-11-20 03:52:00
11:52 PM,48.9,37.0,64,30.19,10.0,Calm,Calm,-,N/A,,Overcast,0,2012-11-20 04:52:00